DAL9970 KDTW-KMSP

Flight info

Callsign DAL9970
Flight time 1h 23m
Altitude 40000
Route MIGGY3 SLLAP Q440 IDIOM MUSCL4
Aircraft A359/H-SDE2E3GHIJ3J4J5LM1ORWXY/LB1D1

Departure

Time 2026-05-06 00:50
Airport Detroit Metropolitan Wayne County Airport (KDTW)

Arrival

Time 2026-05-06 02:13
Airport Minneapolis–Saint Paul International Airport / Wold–Chamberlain Field (KMSP)
Time Latitude Longitude Altitude Speed Heading
2026-05-06 00:03 42.20648 -83.36007 653 ft 0 kts 119°
2026-05-06 00:33 42.20651 -83.36014 653 ft 4 kts 119°
2026-05-06 00:33 42.20663 -83.36044 656 ft 2 kts 119°
2026-05-06 00:33 42.20674 -83.36072 654 ft 4 kts 106°
2026-05-06 00:33 42.20675 -83.36105 658 ft 4 kts 62°
2026-05-06 00:34 42.20658 -83.36125 657 ft 4 kts 28°
2026-05-06 00:34 42.20639 -83.36140 658 ft 1 kts 28°
2026-05-06 00:34 42.20638 -83.36140 658 ft 0 kts 28°
2026-05-06 00:34 42.20639 -83.36140 658 ft 0 kts 28°
2026-05-06 00:35 42.20639 -83.36139 658 ft 0 kts 28°
2026-05-06 00:35 42.20639 -83.36138 658 ft 0 kts 28°
2026-05-06 00:37 42.20640 -83.36138 658 ft 0 kts 28°
2026-05-06 00:40 42.20642 -83.36136 653 ft 1 kts 28°
2026-05-06 00:40 42.20665 -83.36119 655 ft 7 kts 28°
2026-05-06 00:41 42.20720 -83.36078 654 ft 11 kts 28°
2026-05-06 00:41 42.20803 -83.36017 656 ft 16 kts 28°
2026-05-06 00:41 42.20910 -83.35938 654 ft 19 kts 28°
2026-05-06 00:41 42.21040 -83.35844 655 ft 23 kts 28°
2026-05-06 00:42 42.21172 -83.35746 655 ft 20 kts 29°
2026-05-06 00:42 42.21308 -83.35647 654 ft 24 kts 28°
2026-05-06 00:42 42.21424 -83.35561 654 ft 7 kts 28°
2026-05-06 00:42 42.21483 -83.35517 654 ft 12 kts 28°
2026-05-06 00:43 42.21544 -83.35424 656 ft 15 kts 77°
2026-05-06 00:43 42.21549 -83.35262 656 ft 19 kts 89°
2026-05-06 00:43 42.21553 -83.35118 652 ft 16 kts 85°
2026-05-06 00:43 42.21601 -83.35025 655 ft 1 kts 42°
2026-05-06 00:44 42.21601 -83.35024 655 ft 0 kts 42°
2026-05-06 00:44 42.21602 -83.35023 655 ft 1 kts 42°
2026-05-06 00:44 42.21614 -83.35009 655 ft 4 kts 43°
2026-05-06 00:44 42.21649 -83.34966 657 ft 9 kts 43°
2026-05-06 00:45 42.21703 -83.34894 654 ft 13 kts 44°
2026-05-06 00:45 42.21777 -83.34799 656 ft 16 kts 43°
2026-05-06 00:45 42.21830 -83.34720 657 ft 10 kts 67°
2026-05-06 00:45 42.21834 -83.34612 656 ft 14 kts 89°
2026-05-06 00:46 42.21855 -83.34500 657 ft 13 kts 45°
2026-05-06 00:46 42.21947 -83.34433 653 ft 17 kts 27°
2026-05-06 00:46 42.22060 -83.34350 657 ft 20 kts 28°
2026-05-06 00:46 42.22197 -83.34251 657 ft 24 kts 29°
2026-05-06 00:47 42.22352 -83.34134 655 ft 27 kts 28°
2026-05-06 00:47 42.22525 -83.34007 656 ft 30 kts 28°
2026-05-06 00:47 42.22671 -83.33900 654 ft 19 kts 29°
2026-05-06 00:47 42.22778 -83.33821 654 ft 14 kts 28°
2026-05-06 00:48 42.22844 -83.33771 656 ft 11 kts 34°
2026-05-06 00:48 42.22844 -83.33686 654 ft 9 kts 115°
2026-05-06 00:48 42.22809 -83.33629 653 ft 7 kts 164°
2026-05-06 00:48 42.22770 -83.33655 654 ft 6 kts 209°
2026-05-06 00:49 42.22768 -83.33656 656 ft 0 kts 209°
2026-05-06 00:49 42.22744 -83.33674 655 ft 16 kts 209°
2026-05-06 00:49 42.22464 -83.33883 655 ft 90 kts 209°
2026-05-06 00:49 42.21631 -83.34497 686 ft 176 kts 208°
2026-05-06 00:50 42.20507 -83.35315 1673 ft 189 kts 213°
2026-05-06 00:50 42.19415 -83.36460 2506 ft 210 kts 229°
2026-05-06 00:50 42.18580 -83.38182 3051 ft 230 kts 250°
2026-05-06 00:50 42.17935 -83.40270 3711 ft 251 kts 250°
2026-05-06 00:51 42.17257 -83.42486 4416 ft 262 kts 250°
2026-05-06 00:51 42.16528 -83.44717 4849 ft 258 kts 248°
2026-05-06 00:51 42.15754 -83.46893 5238 ft 256 kts 246°
2026-05-06 00:51 42.14961 -83.49031 5626 ft 253 kts 245°
2026-05-06 00:52 42.14191 -83.51155 5971 ft 250 kts 247°
2026-05-06 00:52 42.13736 -83.53388 6214 ft 247 kts 264°
2026-05-06 00:52 42.13937 -83.55681 6446 ft 251 kts 286°
2026-05-06 00:52 42.14778 -83.57758 6670 ft 256 kts 302°
2026-05-06 00:53 42.15860 -83.59685 6889 ft 259 kts 303°
2026-05-06 00:53 42.16967 -83.61605 7001 ft 259 kts 303°
2026-05-06 00:53 42.18068 -83.63532 6989 ft 260 kts 303°
2026-05-06 00:53 42.19164 -83.65465 7001 ft 260 kts 303°
2026-05-06 00:54 42.20259 -83.67407 6996 ft 260 kts 303°
2026-05-06 00:54 42.21401 -83.69306 6990 ft 263 kts 309°
2026-05-06 00:54 42.22921 -83.70720 7121 ft 273 kts 333°
2026-05-06 00:54 42.24793 -83.71355 7810 ft 282 kts 345°
2026-05-06 00:55 42.26742 -83.71792 8957 ft 286 kts 344°
2026-05-06 00:55 42.28722 -83.72231 10050 ft 292 kts 343°
2026-05-06 00:55 42.30784 -83.72703 10765 ft 313 kts 343°
2026-05-06 00:55 42.33017 -83.73226 11249 ft 338 kts 343°
2026-05-06 00:56 42.35391 -83.73773 12019 ft 352 kts 343°
2026-05-06 00:56 42.37829 -83.74327 12983 ft 359 kts 343°
2026-05-06 00:56 42.40320 -83.74893 13940 ft 365 kts 343°
2026-05-06 00:56 42.42849 -83.75473 14749 ft 373 kts 343°
2026-05-06 00:57 42.45433 -83.76067 15605 ft 380 kts 342°
2026-05-06 00:57 42.47164 -83.76465 16163 ft 383 kts 342°
2026-05-06 00:57 42.50677 -83.77275 17332 ft 389 kts 342°
2026-05-06 00:57 42.53370 -83.77897 18202 ft 395 kts 342°
2026-05-06 00:58 42.56095 -83.78528 18941 ft 401 kts 342°
2026-05-06 00:58 42.58865 -83.79172 19693 ft 407 kts 342°
2026-05-06 00:58 42.61646 -83.79963 20470 ft 409 kts 338°
2026-05-06 00:58 42.64427 -83.80901 21261 ft 414 kts 337°
2026-05-06 00:59 42.67244 -83.81854 22009 ft 421 kts 338°
2026-05-06 00:59 42.70111 -83.82808 22756 ft 427 kts 338°
2026-05-06 00:59 42.73026 -83.83767 23503 ft 433 kts 338°
2026-05-06 00:59 42.75917 -83.84894 24181 ft 430 kts 331°
2026-05-06 01:00 42.78586 -83.86597 24975 ft 418 kts 320°
2026-05-06 01:00 42.80907 -83.88886 25760 ft 406 kts 309°
2026-05-06 01:00 42.82965 -83.91495 26549 ft 404 kts 307°
2026-05-06 01:00 42.84986 -83.94181 27320 ft 406 kts 306°
2026-05-06 01:01 42.86321 -83.95963 27838 ft 407 kts 307°
2026-05-06 01:01 42.88354 -83.98673 28493 ft 411 kts 307°
2026-05-06 01:01 42.91079 -84.02298 29385 ft 415 kts 307°
2026-05-06 01:01 42.93153 -84.05055 30064 ft 417 kts 307°
2026-05-06 01:02 42.95228 -84.07812 30734 ft 416 kts 307°
2026-05-06 01:02 42.97296 -84.10558 31503 ft 412 kts 307°
2026-05-06 01:02 42.98680 -84.12398 32002 ft 410 kts 306°
2026-05-06 01:02 43.00717 -84.15112 32677 ft 408 kts 306°
2026-05-06 01:03 43.02750 -84.17827 33302 ft 408 kts 306°
2026-05-06 01:03 43.04751 -84.20499 33841 ft 408 kts 306°
2026-05-06 01:03 43.06778 -84.23208 34368 ft 406 kts 306°
2026-05-06 01:03 43.08788 -84.25893 34936 ft 403 kts 306°
2026-05-06 01:04 43.10799 -84.28589 35281 ft 405 kts 306°
2026-05-06 01:04 43.12812 -84.31287 35769 ft 404 kts 306°
2026-05-06 01:04 43.14817 -84.33974 36278 ft 402 kts 306°
2026-05-06 01:04 43.16810 -84.36652 36718 ft 401 kts 306°
2026-05-06 01:05 43.18798 -84.39324 37144 ft 400 kts 306°
2026-05-06 01:05 43.20780 -84.41992 37589 ft 399 kts 306°
2026-05-06 01:05 43.22729 -84.44681 38025 ft 395 kts 304°
2026-05-06 01:05 43.24465 -84.47558 38445 ft 387 kts 298°
2026-05-06 01:06 43.25934 -84.50615 38768 ft 383 kts 295°
2026-05-06 01:06 43.27328 -84.53741 38990 ft 385 kts 295°
2026-05-06 01:06 43.28719 -84.56887 39177 ft 387 kts 295°
2026-05-06 01:06 43.30080 -84.59969 39404 ft 388 kts 295°
2026-05-06 01:07 43.31524 -84.63235 39562 ft 393 kts 295°
2026-05-06 01:07 43.32936 -84.66435 39673 ft 397 kts 295°
2026-05-06 01:07 43.34392 -84.69730 39823 ft 399 kts 295°
2026-05-06 01:08 43.37243 -84.76186 39854 ft 397 kts 295°
2026-05-06 01:08 43.40097 -84.82671 39856 ft 397 kts 295°
2026-05-06 01:09 43.42952 -84.89173 39855 ft 397 kts 295°
2026-05-06 01:09 43.45632 -84.95775 39856 ft 393 kts 290°
2026-05-06 01:10 43.47914 -85.02601 39863 ft 392 kts 289°
2026-05-06 01:10 43.50117 -85.09468 39861 ft 392 kts 289°
2026-05-06 01:11 43.52324 -85.16349 39861 ft 392 kts 289°
2026-05-06 01:11 43.54543 -85.23232 39868 ft 395 kts 289°
2026-05-06 01:12 43.56779 -85.30169 39870 ft 397 kts 289°
2026-05-06 01:12 43.59020 -85.37133 39870 ft 397 kts 289°
2026-05-06 01:13 43.61241 -85.44053 39855 ft 397 kts 288°
2026-05-06 01:13 43.63475 -85.51034 39851 ft 398 kts 288°
2026-05-06 01:14 43.66824 -85.61540 39851 ft 398 kts 288°
2026-05-06 01:14 43.69051 -85.68546 39856 ft 398 kts 288°
2026-05-06 01:15 43.71275 -85.75563 39858 ft 398 kts 288°
2026-05-06 01:15 43.73515 -85.82564 39863 ft 398 kts 289°
2026-05-06 01:16 43.75784 -85.89502 39897 ft 399 kts 289°
2026-05-06 01:16 43.78092 -85.96573 39874 ft 403 kts 288°
2026-05-06 01:17 43.80377 -86.03613 39881 ft 404 kts 288°
2026-05-06 01:17 43.82674 -86.10719 39877 ft 404 kts 288°
2026-05-06 01:18 43.84968 -86.17835 39886 ft 404 kts 288°
2026-05-06 01:18 43.87262 -86.24978 39877 ft 408 kts 288°
2026-05-06 01:19 43.89568 -86.32174 39880 ft 409 kts 288°
2026-05-06 01:19 43.91873 -86.39384 39880 ft 409 kts 288°
2026-05-06 01:20 43.94174 -86.46599 39887 ft 409 kts 288°
2026-05-06 01:20 43.96457 -86.53780 39871 ft 409 kts 288°
2026-05-06 01:21 43.98752 -86.61023 39895 ft 411 kts 289°
2026-05-06 01:21 44.01058 -86.68326 39888 ft 414 kts 289°
2026-05-06 01:22 44.03371 -86.75658 39888 ft 415 kts 288°
2026-05-06 01:22 44.05682 -86.83006 39895 ft 414 kts 288°
2026-05-06 01:23 44.07985 -86.90350 39898 ft 414 kts 288°
2026-05-06 01:23 44.10284 -86.97706 39905 ft 415 kts 288°
2026-05-06 01:24 44.12568 -87.05036 39900 ft 415 kts 288°
2026-05-06 01:24 44.14862 -87.12418 39900 ft 415 kts 288°
2026-05-06 01:25 44.17153 -87.19808 39900 ft 415 kts 288°
2026-05-06 01:25 44.19442 -87.27215 39935 ft 415 kts 289°
2026-05-06 01:26 44.21723 -87.34619 39906 ft 417 kts 289°
2026-05-06 01:26 44.24006 -87.42048 39892 ft 416 kts 289°
2026-05-06 01:27 44.26283 -87.49479 39891 ft 416 kts 289°
2026-05-06 01:27 44.28550 -87.56900 39891 ft 416 kts 289°
2026-05-06 01:28 44.30818 -87.64344 39898 ft 416 kts 289°
2026-05-06 01:28 44.33079 -87.71788 39901 ft 416 kts 288°
2026-05-06 01:29 44.35332 -87.79230 39903 ft 416 kts 288°
2026-05-06 01:29 44.37577 -87.86666 39906 ft 415 kts 288°
2026-05-06 01:30 44.39819 -87.94116 39908 ft 415 kts 288°
2026-05-06 01:30 44.42057 -88.01571 39912 ft 417 kts 288°
2026-05-06 01:31 44.44187 -88.08688 39894 ft 418 kts 288°
2026-05-06 01:31 44.46427 -88.16190 39888 ft 418 kts 288°
2026-05-06 01:32 44.48664 -88.23705 39905 ft 418 kts 288°
2026-05-06 01:32 44.50804 -88.31273 39907 ft 416 kts 285°
2026-05-06 01:33 44.52559 -88.39001 39894 ft 416 kts 284°
2026-05-06 01:33 44.54288 -88.46737 39910 ft 416 kts 284°
2026-05-06 01:34 44.56015 -88.54478 39916 ft 416 kts 284°
2026-05-06 01:34 44.57741 -88.62231 39914 ft 416 kts 284°
2026-05-06 01:35 44.59462 -88.69991 39912 ft 416 kts 284°
2026-05-06 01:35 44.61175 -88.77745 39943 ft 417 kts 284°
2026-05-06 01:36 44.62890 -88.85537 39914 ft 419 kts 284°
2026-05-06 01:36 44.64599 -88.93329 39921 ft 420 kts 284°
2026-05-06 01:37 44.66313 -89.01169 39923 ft 420 kts 284°
2026-05-06 01:37 44.68022 -89.09019 39927 ft 420 kts 283°
2026-05-06 01:38 44.69726 -89.16873 39923 ft 420 kts 283°
2026-05-06 01:38 44.71422 -89.24723 39933 ft 420 kts 283°
2026-05-06 01:39 44.73121 -89.32612 39921 ft 422 kts 283°
2026-05-06 01:39 44.74817 -89.40519 39905 ft 422 kts 283°
2026-05-06 01:40 44.76509 -89.48437 39895 ft 422 kts 283°
2026-05-06 01:40 44.78181 -89.56295 39888 ft 422 kts 283°
2026-05-06 01:41 44.79861 -89.64215 39887 ft 422 kts 283°
2026-05-06 01:41 44.81535 -89.72141 39887 ft 422 kts 283°
2026-05-06 01:42 44.83207 -89.80088 39892 ft 422 kts 283°
2026-05-06 01:42 44.84869 -89.88019 39902 ft 422 kts 283°
2026-05-06 01:43 44.86528 -89.95966 39911 ft 422 kts 283°
2026-05-06 01:43 44.88182 -90.03917 39921 ft 423 kts 283°
2026-05-06 01:44 44.89374 -90.12007 39923 ft 420 kts 275°
2026-05-06 01:44 44.90093 -90.20172 39925 ft 420 kts 275°
2026-05-06 01:45 44.90799 -90.28303 39926 ft 420 kts 275°
2026-05-06 01:45 44.91513 -90.36527 39835 ft 418 kts 275°
2026-05-06 01:46 44.91859 -90.40543 39629 ft 418 kts 275°
2026-05-06 01:46 44.92215 -90.44677 39409 ft 419 kts 275°
2026-05-06 01:46 44.92560 -90.48711 39191 ft 419 kts 275°
2026-05-06 01:46 44.92909 -90.52797 38974 ft 418 kts 275°
2026-05-06 01:47 44.93255 -90.56869 38756 ft 417 kts 275°
2026-05-06 01:47 44.93599 -90.60930 38527 ft 416 kts 275°
2026-05-06 01:47 44.93825 -90.63614 38337 ft 415 kts 275°
2026-05-06 01:47 44.94164 -90.67648 37975 ft 413 kts 274°
2026-05-06 01:48 44.94500 -90.71647 37390 ft 408 kts 274°
2026-05-06 01:48 44.94832 -90.75598 36713 ft 404 kts 274°
2026-05-06 01:48 44.95159 -90.79527 36034 ft 402 kts 274°
2026-05-06 01:48 44.95484 -90.83444 35334 ft 400 kts 274°
2026-05-06 01:49 44.95806 -90.87334 34614 ft 398 kts 273°
2026-05-06 01:49 44.96125 -90.91209 33815 ft 397 kts 273°
2026-05-06 01:49 44.96442 -90.95078 32899 ft 395 kts 273°
2026-05-06 01:49 44.96755 -90.98913 32049 ft 391 kts 273°
2026-05-06 01:50 44.97064 -91.02714 31201 ft 387 kts 273°
2026-05-06 01:50 44.97369 -91.06477 30341 ft 384 kts 273°
2026-05-06 01:50 44.97670 -91.10213 29378 ft 381 kts 273°
2026-05-06 01:50 44.97965 -91.13892 28682 ft 373 kts 273°
2026-05-06 01:51 44.98289 -91.17927 27966 ft 364 kts 273°
2026-05-06 01:51 44.98569 -91.21448 27368 ft 357 kts 273°
2026-05-06 01:51 44.98841 -91.24856 27210 ft 341 kts 273°
2026-05-06 01:51 44.99099 -91.28105 27100 ft 325 kts 273°
2026-05-06 01:52 44.99345 -91.31208 26975 ft 311 kts 272°
2026-05-06 01:52 44.99578 -91.34176 26837 ft 298 kts 272°
2026-05-06 01:52 44.99801 -91.37028 26703 ft 288 kts 272°
2026-05-06 01:52 45.00017 -91.39853 26574 ft 291 kts 272°
2026-05-06 01:53 45.00236 -91.42701 26463 ft 292 kts 272°
2026-05-06 01:53 45.00456 -91.45565 26192 ft 293 kts 272°
2026-05-06 01:53 45.00677 -91.48424 25788 ft 293 kts 272°
2026-05-06 01:53 45.00893 -91.51250 25381 ft 294 kts 272°
2026-05-06 01:54 45.01111 -91.54124 24949 ft 295 kts 273°
2026-05-06 01:54 45.01330 -91.57003 24516 ft 295 kts 273°
2026-05-06 01:54 45.01550 -91.59894 24072 ft 296 kts 273°
2026-05-06 01:54 45.01768 -91.62788 23640 ft 297 kts 273°
2026-05-06 01:55 45.01987 -91.65694 23118 ft 298 kts 273°
2026-05-06 01:55 45.02206 -91.68605 22669 ft 299 kts 273°
2026-05-06 01:55 45.02426 -91.71536 22213 ft 303 kts 274°
2026-05-06 01:55 45.02654 -91.74625 21829 ft 319 kts 274°
2026-05-06 01:56 45.02884 -91.77731 21394 ft 324 kts 274°
2026-05-06 01:56 45.03122 -91.80917 20787 ft 325 kts 274°
2026-05-06 01:56 45.03356 -91.84093 20264 ft 326 kts 274°
2026-05-06 01:56 45.03591 -91.87286 19746 ft 327 kts 275°
2026-05-06 01:57 45.03825 -91.90493 19250 ft 328 kts 275°
2026-05-06 01:57 45.04060 -91.93708 18739 ft 330 kts 275°
2026-05-06 01:57 45.04295 -91.96944 18226 ft 331 kts 275°
2026-05-06 01:57 45.04529 -92.00184 17662 ft 331 kts 275°
2026-05-06 01:58 45.04762 -92.03410 17176 ft 329 kts 275°
2026-05-06 01:58 45.04993 -92.06628 16677 ft 327 kts 275°
2026-05-06 01:58 45.05221 -92.09812 16164 ft 324 kts 275°
2026-05-06 01:58 45.05446 -92.12974 15662 ft 322 kts 276°
2026-05-06 01:59 45.05669 -92.16122 15163 ft 320 kts 276°
2026-05-06 01:59 45.05887 -92.19242 14653 ft 318 kts 275°
2026-05-06 01:59 45.05868 -92.22351 14172 ft 316 kts 263°
2026-05-06 01:59 45.05471 -92.25389 13672 ft 312 kts 259°
2026-05-06 02:00 45.04997 -92.28371 13139 ft 309 kts 259°
2026-05-06 02:00 45.04532 -92.31275 12657 ft 305 kts 259°
2026-05-06 02:00 45.04067 -92.34191 12148 ft 303 kts 259°
2026-05-06 02:00 45.03609 -92.37080 11690 ft 300 kts 259°
2026-05-06 02:01 45.03156 -92.39942 11214 ft 297 kts 259°
2026-05-06 02:01 45.02707 -92.42788 10727 ft 295 kts 260°
2026-05-06 02:01 45.02263 -92.45597 10403 ft 287 kts 260°
2026-05-06 02:01 45.01835 -92.48284 10266 ft 272 kts 260°
2026-05-06 02:02 45.01430 -92.50833 10132 ft 260 kts 260°
2026-05-06 02:02 45.01040 -92.53284 9955 ft 252 kts 261°
2026-05-06 02:02 45.00624 -92.55711 9647 ft 260 kts 257°
2026-05-06 02:02 44.99804 -92.58037 9282 ft 270 kts 237°
2026-05-06 02:03 44.98526 -92.59995 8917 ft 272 kts 229°
2026-05-06 02:03 44.97156 -92.61842 8582 ft 272 kts 228°
2026-05-06 02:03 44.95812 -92.63659 8244 ft 271 kts 228°
2026-05-06 02:03 44.94482 -92.65454 8024 ft 254 kts 228°
2026-05-06 02:04 44.93222 -92.67154 7883 ft 250 kts 229°
2026-05-06 02:04 44.91978 -92.68848 7682 ft 248 kts 229°
2026-05-06 02:04 44.90740 -92.70536 7396 ft 247 kts 229°
2026-05-06 02:04 44.89513 -92.72211 7116 ft 246 kts 229°
2026-05-06 02:05 44.88286 -92.73894 7010 ft 245 kts 229°
2026-05-06 02:05 44.87111 -92.75496 6991 ft 230 kts 229°
2026-05-06 02:05 44.85975 -92.77031 6987 ft 224 kts 229°
2026-05-06 02:05 44.84845 -92.78553 6720 ft 225 kts 229°
2026-05-06 02:06 44.83826 -92.80205 6345 ft 222 kts 241°
2026-05-06 02:06 44.83010 -92.82048 5950 ft 222 kts 244°
2026-05-06 02:06 44.82244 -92.83937 5557 ft 222 kts 246°
2026-05-06 02:06 44.81570 -92.85901 5182 ft 222 kts 249°
2026-05-06 02:07 44.80928 -92.87877 4838 ft 221 kts 249°
2026-05-06 02:07 44.80363 -92.89879 4493 ft 219 kts 254°
2026-05-06 02:07 44.79856 -92.91897 4133 ft 218 kts 255°
2026-05-06 02:07 44.79362 -92.93870 4006 ft 208 kts 255°
2026-05-06 02:08 44.78886 -92.95746 3996 ft 202 kts 255°
2026-05-06 02:08 44.78429 -92.97576 4014 ft 199 kts 255°
2026-05-06 02:08 44.78386 -92.99475 4008 ft 195 kts 287°
2026-05-06 02:08 44.78994 -93.01147 4002 ft 192 kts 306°
2026-05-06 02:09 44.79766 -93.02683 3783 ft 190 kts 306°
2026-05-06 02:09 44.80463 -93.04218 3540 ft 182 kts 302°
2026-05-06 02:09 44.81090 -93.05728 3266 ft 176 kts 302°
2026-05-06 02:09 44.81720 -93.07177 3008 ft 170 kts 304°
2026-05-06 02:10 44.82333 -93.08573 2771 ft 164 kts 303°
2026-05-06 02:10 44.82899 -93.09883 2555 ft 150 kts 303°
2026-05-06 02:10 44.83421 -93.11081 2365 ft 137 kts 304°
2026-05-06 02:10 44.83902 -93.12184 2142 ft 127 kts 304°
2026-05-06 02:11 44.84352 -93.13188 1977 ft 117 kts 306°
2026-05-06 02:11 44.84777 -93.14153 1866 ft 116 kts 303°
2026-05-06 02:11 44.85190 -93.15150 1693 ft 119 kts 302°
2026-05-06 02:11 44.85624 -93.16153 1515 ft 120 kts 303°
2026-05-06 02:12 44.86055 -93.17158 1351 ft 120 kts 301°
2026-05-06 02:12 44.86490 -93.18160 1170 ft 120 kts 303°
2026-05-06 02:12 44.86927 -93.19147 1031 ft 121 kts 302°
2026-05-06 02:12 44.87359 -93.20151 900 ft 120 kts 302°
2026-05-06 02:13 44.87789 -93.21140 832 ft 113 kts 302°
2026-05-06 02:13 44.88095 -93.21832 830 ft 33 kts 301°
2026-05-06 02:13 44.88174 -93.21991 837 ft 17 kts 325°
2026-05-06 02:13 44.88275 -93.21968 840 ft 11 kts 34°
2026-05-06 02:14 44.88305 -93.21939 831 ft 0 kts 34°
2026-05-06 02:15 44.88306 -93.21939 831 ft 0 kts 34°
2026-05-06 02:15 44.88308 -93.21936 831 ft 1 kts 36°
2026-05-06 02:16 44.88312 -93.21931 831 ft 1 kts 41°
2026-05-06 02:16 44.88314 -93.21928 831 ft 3 kts 41°
2026-05-06 02:16 44.88316 -93.21870 835 ft 9 kts 117°
2026-05-06 02:16 44.88288 -93.21807 831 ft 5 kts 122°
2026-05-06 02:17 44.88270 -93.21753 833 ft 3 kts 87°
2026-05-06 02:17 44.88287 -93.21715 833 ft 7 kts 56°
2026-05-06 02:17 44.88305 -93.21681 832 ft 4 kts 52°
2026-05-06 02:17 44.88321 -93.21652 836 ft 4 kts 52°
2026-05-06 02:18 44.88332 -93.21633 831 ft 4 kts 51°
2026-05-06 02:18 44.88335 -93.21628 834 ft 0 kts 51°